Weather History for Vero Beach, FL

Change the Weather History Date:

Monday, February 27, 2012

  Actual Average Record
Temperature  
Mean Temperature 75 °F 66 °F  
Max Temperature 81 °F 76 °F 87 °F (2007)
Min Temperature 68 °F 56 °F 33 °F (1974)
Degree Days  
Heating Degree Days 0 3  
Month to date heating degree days 42 95  
Since 1 July heating degree days 211 382  
Cooling Degree Days 10 3  
Month to date cooling degree days 127 73  
Year to date cooling degree days 166 134  
Growing Degree Days 24 (Base 50)    
Moisture  
Dew Point 67 °F    
Average Humidity 79    
Maximum Humidity 90    
Minimum Humidity 67    
Precipitation  
Precipitation 0.99 in 0.12 in 1.83 in (1984)
Month to date precipitation 1.79 2.56  
Year to date precipitation 1.79 5.06  
Sea Level Pressure  
Sea Level Pressure 30.28 in    
Wind  
Wind Speed 12 mph (ESE)    
Max Wind Speed 21 mph    
Max Gust Speed 26 mph    
Visibility 9 miles    
Events Rain , Thunderstorm    
T = Trace of Precipitation, MM = Missing Value Source: NWS Daily Summary

Daily Weather History Graph

Daily Weather History Graph

Search for Another Location

Airport:

Trip Planner

Search our weather history database for the weather conditions in past years. The results will help you decide how hot, cold, wet, or windy it might be!

Date:

Astronomy

Feb. 27, 2012 Rise Set
Actual Time 6:48 AM EST 6:20 PM EST
Civil Twilight 6:25 AM EST 6:44 PM EST
Nautical Twilight 5:57 AM EST 7:11 PM EST
Astronomical Twilight 5:30 AM EST 7:38 PM EST
Moon 9:51 AM EST (2/27) 11:36 PM EST (2/27)
Length of Visible Light 12h 19m
Length of Day
11h 32m
Waxing Crescent, 29% of the Moon is Illuminated
Feb 27
Waxing Crescent
Feb 29
First Quarter
Mar 8
Full
Mar 14
Last Quarter
Mar 22
New

Hourly Weather History & Observations

Time (EST) Temp. Heat Index Dew Point Humidity Pressure Visibility Wind Dir Wind Speed Gust Speed Precip Events Conditions
12:53 AM 71.1 °F - 64.9 °F 81% 30.28 in 10.0 mi SE 11.5 mph - N/A   Clear
1:53 AM 71.1 °F - 64.9 °F 81% 30.27 in 10.0 mi ESE 12.7 mph - N/A   Clear
2:53 AM 71.1 °F - 64.9 °F 81% 30.26 in 10.0 mi ESE 11.5 mph - N/A   Clear
3:53 AM 71.1 °F - 64.9 °F 81% 30.25 in 10.0 mi ESE 9.2 mph - N/A   Clear
4:53 AM 71.1 °F - 64.9 °F 81% 30.26 in 10.0 mi ESE 9.2 mph - N/A   Clear
5:53 AM 71.1 °F - 64.9 °F 81% 30.26 in 10.0 mi ESE 9.2 mph - N/A   Scattered Clouds
6:53 AM 71.1 °F - 64.9 °F 81% 30.27 in 10.0 mi ESE 10.4 mph - N/A   Clear
7:53 AM 73.0 °F - 66.0 °F 79% 30.29 in 10.0 mi ESE 11.5 mph - N/A   Mostly Cloudy
8:53 AM 75.9 °F - 66.9 °F 74% 30.30 in 10.0 mi ESE 17.3 mph - N/A   Overcast
9:53 AM 78.1 °F - 68.0 °F 71% 30.31 in 10.0 mi ESE 16.1 mph - N/A   Mostly Cloudy
10:53 AM 80.1 °F 82.7 °F 68.0 °F 67% 30.32 in 10.0 mi SE 15.0 mph 19.6 mph N/A   Mostly Cloudy
11:53 AM 79.0 °F - 66.9 °F 66% 30.30 in 10.0 mi SE 17.3 mph - N/A   Mostly Cloudy
12:53 PM 78.1 °F - 66.9 °F 68% 30.28 in 10.0 mi ESE 15.0 mph - N/A   Mostly Cloudy
1:03 PM 78.8 °F - 66.2 °F 65% 30.27 in 10.0 mi SE 17.3 mph 24.2 mph N/A   Mostly Cloudy
1:36 PM 78.8 °F - 66.2 °F 65% 30.25 in 10.0 mi ESE 16.1 mph - N/A   Overcast
1:53 PM 79.0 °F - 66.9 °F 66% 30.25 in 10.0 mi ESE 17.3 mph 23.0 mph N/A   Mostly Cloudy
2:53 PM 75.9 °F - 66.9 °F 74% 30.23 in 10.0 mi SE 17.3 mph - N/A   Mostly Cloudy
3:53 PM 75.0 °F - 68.0 °F 79% 30.23 in 10.0 mi SE 13.8 mph - N/A   Mostly Cloudy
4:53 PM 73.9 °F - 69.1 °F 85% 30.24 in 9.0 mi East 8.1 mph - 0.01 in   Overcast
5:53 PM 73.9 °F - 69.1 °F 85% 30.24 in 10.0 mi ESE 6.9 mph - N/A   Overcast
6:53 PM 73.0 °F - 69.1 °F 87% 30.25 in 10.0 mi ESE 8.1 mph - N/A   Mostly Cloudy
7:53 PM 73.0 °F - 69.1 °F 87% 30.25 in 10.0 mi East 8.1 mph - N/A   Mostly Cloudy
8:07 PM 73.4 °F - 69.8 °F 88% 30.27 in 10.0 mi ESE 8.1 mph - N/A   Mostly Cloudy
8:42 PM 73.4 °F - 69.8 °F 88% 30.27 in 10.0 mi East 8.1 mph - N/A   Scattered Clouds
8:53 PM 73.0 °F - 69.1 °F 87% 30.27 in 10.0 mi ESE 8.1 mph - N/A   Scattered Clouds
9:53 PM 72.0 °F - 68.0 °F 87% 30.30 in 10.0 mi NE 8.1 mph - N/A   Mostly Cloudy
10:02 PM 71.6 °F - 66.2 °F 83% 30.30 in 10.0 mi NE 6.9 mph - N/A   Overcast
10:26 PM 71.6 °F - 66.2 °F 83% 30.31 in 10.0 mi ENE 10.4 mph - N/A   Overcast
10:29 PM 71.6 °F - 66.2 °F 83% 30.31 in 10.0 mi ENE 10.4 mph - N/A   Overcast
10:53 PM 69.1 °F - 66.0 °F 90% 30.31 in 5.0 mi East 11.5 mph - 0.05 in Rain Rain
11:14 PM 68.0 °F - 66.2 °F 94% 30.31 in 1.8 mi ENE 5.8 mph - 0.13 in Rain Heavy Rain
11:33 PM 68.0 °F - 66.2 °F 94% 30.30 in 2.0 mi East 10.4 mph - 0.76 in Rain , Thunderstorm Heavy Rain
11:44 PM 68.0 °F - 66.2 °F 94% 30.30 in 3.0 mi East 8.1 mph - 0.86 in Rain , Thunderstorm Rain
11:51 PM 68.0 °F - 66.2 °F 94% 30.30 in 3.0 mi ESE 5.8 mph - 0.91 in Rain Heavy Rain
11:53 PM 68.0 °F - 66.0 °F 93% 30.30 in 3.0 mi ESE 6.9 mph - 0.93 in Rain Rain